FW3809 Weather Reports


Display with metric or nautical units.
time (UTC)temp
F
wind
direction
speed
MPH
gust
MPH
rain 1hr
in
rain 24hr
in
rain mn
in
humidity
%
barometer
mb
20260508122624 69 38 2.0 6.0 0.00 0.00 0.00 91 1012.2
20260508122120 68 62 3.0 6.0 0.00 0.00 0.00 91 1012.3
20260508121553 68 52 3.0 7.0 0.00 0.00 0.00 91 1012.5
20260508121049 68 25 3.0 9.0 0.00 0.00 0.00 91 1012.8
20260508120525 68 354 4.0 9.0 0.00 0.00 0.00 91 1012.8
20260508115957 68 36 5.0 11.0 0.00 0.00 0.00 91 1012.6
20260508115453 68 30 3.0 10.0 0.00 0.00 0.00 91 1012.6
20260508114928 68 21 4.0 10.0 0.00 0.00 0.00 92 1012.7
20260508114402 68 29 5.0 10.0 0.00 0.00 0.00 92 1012.6
20260508113858 68 14 5.0 11.0 0.00 0.00 0.00 92 1012.6
20260508113627 68 37 5.0 11.0 0.00 0.00 0.00 92 1012.6
20260508113123 68 48 3.0 10.0 0.00 0.00 0.00 92 1012.5
20260508112336 68 27 4.0 11.0 0.00 0.00 0.00 92 1012.4
20260508112331 68 43 6.0 11.0 0.00 0.00 0.00 92 1012.1
20260508111256 68 65 6.0 10.0 0.00 0.00 0.00 92 1012.1
20260508110751 68 58 4.0 9.0 0.00 0.00 0.00 92 1012.3
20260508110226 68 93 4.0 9.0 0.00 0.00 0.00 92 1012.3
20260508105727 68 58 3.0 9.0 0.00 0.00 0.00 92 1012.4
20260508105224 68 33 3.0 9.0 0.00 0.00 0.00 93 1012.6
20260508104725 69 26 3.0 9.0 0.00 0.00 0.00 93 1012.5
20260508104223 68 53 3.0 9.0 0.00 0.00 0.00 93 1012.5
20260508103723 69 53 3.0 9.0 0.00 0.00 0.00 93 1012.3
20260508103451 68 14 3.0 7.0 0.00 0.00 0.00 93 1012.1
20260508102930 68 30 3.0 8.0 0.00 0.00 0.00 93 1011.9
20260508102146 69 52 3.0 9.0 0.00 0.00 0.00 93 1011.9
20260508101647 69 73 3.0 6.0 0.00 0.00 0.00 93 1012.1
20260508101131 69 46 3.0 8.0 0.00 0.00 0.00 93 1012.2
20260508100633 69 39 3.0 8.0 0.00 0.00 0.00 93 1012.1
20260508100119 69 18 4.0 9.0 0.00 0.00 0.00 93 1012.3
20260508095830 69 29 4.0 8.0 0.00 0.00 0.00 92 1012.2
20260508095044 69 34 3.0 9.0 0.00 0.00 0.00 92 1012.4
20260508094543 69 39 4.0 9.0 0.00 0.00 0.00 92 1012.1
20260508094045 69 69 5.0 9.0 0.00 0.00 0.00 92 1011.6
20260508093527 69 85 4.0 11.0 0.00 0.00 0.00 91 1011.7
20260508093028 69 77 4.0 11.0 0.00 0.00 0.00 91 1011.8
20260508092505 69 79 4.0 11.0 0.00 0.00 0.00 90 1011.9
20260508092004 69 60 5.0 11.0 0.00 0.00 0.00 90 1011.9
20260508091440 69 73 5.0 11.0 0.00 0.00 0.00 89 1011.9
20260508090916 69 85 4.0 9.0 0.00 0.00 0.00 88 1011.9
20260508090627 70 27 3.0 7.0 0.00 0.00 0.00 88 1012.1
20260508090333 70 22 3.0 8.0 0.00 0.00 0.00 88 1012.3
20260508085306 70 40 3.0 8.0 0.00 0.00 0.00 88 1012.3
20260508084800 70 37 3.0 10.0 0.00 0.00 0.00 87 1012.3
20260508084257 70 49 4.0 10.0 0.00 0.00 0.00 87 1012.3
20260508083731 70 38 4.0 10.0 0.00 0.00 0.00 87 1012.2
20260508083229 70 61 4.0 10.0 0.00 0.00 0.00 87 1012.4
20260508082725 70 56 4.0 9.0 0.00 0.00 0.00 86 1012.5
20260508082203 70 39 4.0 9.0 0.00 0.00 0.00 86 1012.3
20260508081633 70 35 4.0 10.0 0.00 0.00 0.00 86 1012.2
20260508081106 70 21 4.0 10.0 0.00 0.00 0.00 86 1012.2
20260508080813 70 28 5.0 10.0 0.00 0.00 0.00 86 1012.3
20260508080016 71 25 4.0 10.0 0.00 0.00 0.00 86 1012.3
20260508075448 71 52 3.0 6.0 0.00 0.00 0.00 85 1012.3
20260508074945 71 9 4.0 8.0 0.00 0.00 0.00 85 1012.5
20260508074418 71 37 4.0 8.0 0.00 0.00 0.00 85 1012.7
20260508073915 71 27 3.0 8.0 0.00 0.00 0.00 85 1012.6
20260508073620 71 31 3.0 8.0 0.00 0.00 0.00 85 1012.6
20260508072844 71 32 2.0 6.0 0.00 0.00 0.00 85 1012.5
20260508072342 71 43 2.0 6.0 0.00 0.00 0.00 85 1012.3
20260508071815 71 48 3.0 6.0 0.00 0.00 0.00 85 1012.3
20260508071248 71 53 2.0 6.0 0.00 0.00 0.00 85 1012.5
20260508070723 71 48 2.0 5.0 0.00 0.00 0.00 85 1012.6
20260508070159 71 60 3.0 7.0 0.00 0.00 0.00 84 1012.6
20260508065653 71 38 3.0 7.0 0.00 0.00 0.00 84 1012.5
20260508065124 71 51 3.0 7.0 0.00 0.00 0.00 84 1012.5
20260508064624 71 53 3.0 9.0 0.00 0.00 0.00 84 1012.6
20260508064054 71 45 4.0 9.0 0.00 0.00 0.00 84 1012.5
20260508063553 71 64 4.0 9.0 0.00 0.00 0.00 84 1012.4
20260508063024 71 68 4.0 9.0 0.00 0.00 0.00 84 1012.7
20260508062522 71 72 4.0 9.0 0.00 0.00 0.00 84 1012.8
20260508061954 71 72 3.0 7.0 0.00 0.00 0.00 83 1012.7
20260508061452 71 61 4.0 8.0 0.00 0.00 0.00 83 1012.9
20260508060924 71 82 4.0 8.0 0.00 0.00 0.00 83 1012.9
20260508060421 71 69 3.0 7.0 0.00 0.00 0.00 83 1013.0
20260508055855 71 73 3.0 7.0 0.00 0.00 0.00 83 1012.8
20260508055600 71 55 4.0 7.0 0.00 0.00 0.00 83 1012.8
20260508054803 71 77 3.0 7.0 0.00 0.00 0.00 83 1012.6
20260508054259 71 58 4.0 9.0 0.00 0.00 0.00 83 1012.8
20260508053801 71 67 3.0 9.0 0.00 0.00 0.00 82 1012.8
20260508053258 71 64 4.0 9.0 0.00 0.00 0.00 82 1012.6
20260508052750 72 75 4.0 9.0 0.00 0.00 0.00 82 1012.7
20260508052246 72 50 4.0 9.0 0.00 0.00 0.00 82 1012.6
20260508051745 72 70 4.0 10.0 0.00 0.00 0.00 82 1012.5
20260508051243 72 78 4.0 10.0 0.00 0.00 0.00 82 1012.6
20260508050740 72 14 4.0 9.0 0.00 0.00 0.00 82 1012.7
20260508050212 72 43 4.0 8.0 0.00 0.00 0.00 82 1012.6
20260508045712 73 26 4.0 9.0 0.00 0.00 0.00 82 1012.6
20260508045210 73 16 4.0 9.0 0.00 0.00 0.00 82 1012.7
20260508044704 73 56 4.0 9.0 0.00 0.00 0.00 82 1012.6
20260508044201 73 37 3.0 9.0 0.00 0.00 0.00 82 1012.6
20260508043634 73 52 4.0 8.0 0.00 0.00 0.00 82 1012.7
20260508043132 73 48 4.0 10.0 0.00 0.00 0.00 81 1012.8
20260508042833 73 21 4.0 9.0 0.00 0.00 0.00 81 1012.8
20260508042034 73 53 3.0 9.0 0.00 0.00 0.00 81 1012.8
20260508041510 74 65 4.0 12.0 0.00 0.00 0.00 81 1012.8
20260508040942 74 75 5.0 12.0 0.00 0.00 0.00 81 1012.6
20260508040712 74 64 6.0 12.0 0.00 0.00 0.00 81 1012.3
20260508040144 74 72 5.0 12.0 0.00 0.00 0.00 80 1012.3
20260508035410 74 85 6.0 12.0 0.00 0.00 0.00 80 1012.6
20260508034857 74 84 5.0 12.0 0.00 0.00 0.00 80 1012.6
20260508034354 74 66 4.0 10.0 0.00 0.00 0.00 79 1012.9
20260508033853 74 24 4.0 10.0 0.00 0.00 0.00 79 1013.2
20260508033353 74 50 4.0 10.0 0.00 0.00 0.00 79 1013.1
20260508032832 74 44 4.0 9.0 0.00 0.00 0.00 79 1013.4
20260508032534 74 62 3.0 9.0 0.00 0.00 0.00 79 1013.5
20260508031734 75 35 3.0 10.0 0.00 0.00 0.00 79 1013.5
20260508031241 75 32 3.0 8.0 0.00 0.00 0.00 79 1013.5
20260508030704 75 21 3.0 8.0 0.00 0.00 0.00 79 1013.5
20260508030201 75 37 3.0 8.0 0.00 0.00 0.00 79 1013.2
20260508025634 75 29 3.0 9.0 0.00 0.00 0.00 78 1013.4
20260508025132 75 10 3.0 9.0 0.00 0.00 0.00 79 1013.4
20260508024604 76 55 3.0 7.0 0.00 0.00 0.00 78 1013.2
20260508024104 76 54 4.0 9.0 0.00 0.00 0.00 78 1013.0
20260508023539 76 45 4.0 9.0 0.00 0.00 0.00 77 1012.9
20260508023012 76 33 4.0 9.0 0.00 0.00 0.00 76 1013.2
20260508022450 76 43 4.0 8.0 0.00 0.00 0.00 75 1013.2
20260508021944 76 53 4.0 7.0 0.00 0.00 0.00 75 1013.1
20260508021712 76 52 4.0 9.0 0.00 0.00 0.00 75 1013.2
20260508020940 76 31 4.0 9.0 0.00 0.00 0.00 75 1013.1
20260508020412 76 49 3.0 8.0 0.00 0.00 0.00 75 1013.1
20260508015911 76 44 3.0 8.0 0.00 0.00 0.00 75 1012.9
20260508015342 76 42 3.0 8.0 0.00 0.00 0.00 75 1013.0
20260508014843 76 45 4.0 10.0 0.00 0.00 0.00 75 1012.9
20260508014317 76 83 4.0 10.0 0.00 0.00 0.00 75 1012.9
20260508013803 76 52 3.0 8.0 0.00 0.00 0.00 76 1012.9
20260508013258 76 50 4.0 11.0 0.00 0.00 0.00 76 1012.9
20260508012734 76 69 5.0 11.0 0.00 0.00 0.00 76 1012.8
20260508012224 76 38 5.0 10.0 0.00 0.00 0.00 76 1012.8
20260508011718 76 35 4.0 10.0 0.00 0.00 0.00 77 1013.0
20260508011154 77 30 4.0 10.0 0.00 0.00 0.00 77 1013.1
20260508010644 77 56 4.0 10.0 0.00 0.00 0.00 77 1013.2
20260508010145 77 359 4.0 10.0 0.00 0.00 0.00 77 1013.2
20260508005644 77 354 5.0 11.0 0.00 0.00 0.00 78 1013.2
20260508005144 77 359 5.0 11.0 0.00 0.00 0.00 77 1012.9
20260508004646 77 14 4.0 10.0 0.00 0.00 0.00 77 1012.7
20260508004137 77 19 4.0 12.0 0.00 0.00 0.00 77 1012.9
20260508004132 77 37 4.0 12.0 0.00 0.00 0.00 77 1012.7
20260508003108 77 50 4.0 10.0 0.00 0.00 0.00 78 1012.9
20260508002552 77 23 5.0 10.0 0.00 0.00 0.00 78 1012.9
20260508002028 78 35 5.0 11.0 0.00 0.00 0.00 78 1012.9
20260508001503 78 31 5.0 11.0 0.00 0.00 0.00 78 1012.8
20260508001004 78 43 5.0 11.0 0.00 0.00 0.00 77 1013.0
20260508000709 78 23 6.0 12.0 0.00 0.00 0.00 78 1013.0
20260508000205 78 21 5.0 12.0 0.00 0.00 0.00 77 1013.1
20260507235429 78 16 4.0 10.0 0.00 0.00 0.00 77 1013.1
20260507234902 78 47 4.0 7.0 0.00 0.00 0.00 77 1013.0
20260507234338 78 41 4.0 9.0 0.00 0.00 0.00 77 1012.9
20260507233831 78 28 3.0 9.0 0.00 0.00 0.00 77 1012.9
20260507233327 78 29 4.0 10.0 0.00 0.00 0.00 77 1012.8
20260507232802 78 37 5.0 10.0 0.00 0.00 0.00 76 1012.6
20260507232235 78 48 5.0 10.0 0.00 0.00 0.00 77 1012.6
20260507232004 78 76 5.0 10.0 0.00 0.00 0.00 76 1012.8
20260507231207 78 23 6.0 10.0 0.00 0.00 0.00 76 1012.6
20260507230640 78 35 6.0 13.0 0.00 0.00 0.00 76 1012.4
20260507230135 79 91 7.0 13.0 0.00 0.00 0.00 75 1012.6
20260507225609 79 37 6.0 11.0 0.00 0.00 0.00 75 1012.5
20260507225042 80 23 5.0 12.0 0.00 0.00 0.00 75 1012.5
20260507224515 79 78 6.0 11.0 0.00 0.00 0.00 75 1012.5
20260507224012 80 50 6.0 11.0 0.00 0.00 0.00 74 1012.6
20260507223717 80 354 5.0 11.0 0.00 0.00 0.00 74 1012.5
20260507222942 80 354 6.0 12.0 0.00 0.00 0.00 75 1012.4
20260507222439 80 39 7.0 12.0 0.00 0.00 0.00 74 1012.3
20260507221937 81 51 6.0 11.0 0.00 0.00 0.00 74 1012.5
20260507221409 81 45 5.0 11.0 0.00 0.00 0.00 73 1012.5
20260507220905 81 64 5.0 10.0 0.00 0.00 0.00 73 1012.6
20260507220401 81 4 6.0 12.0 0.00 0.00 0.00 74 1012.6
20260507215858 80 13 6.0 13.0 0.00 0.00 0.00 75 1012.6
20260507215333 81 41 5.0 10.0 0.00 0.00 0.00 74 1012.8
20260507215307 81 31 5.0 11.0 0.00 0.00 0.00 74 1012.7
20260507214303 82 50 5.0 12.0 0.00 0.00 0.00 73 1012.7
20260507213759 82 52 5.0 12.0 0.00 0.00 0.00 72 1012.7
20260507213256 83 16 6.0 11.0 0.00 0.00 0.00 72 1012.7
20260507212727 83 354 5.0 11.0 0.00 0.00 0.00 71 1012.8
20260507212225 83 73 4.0 10.0 0.00 0.00 0.00 71 1012.8
20260507211722 82 30 5.0 12.0 0.00 0.00 0.00 73 1012.9
20260507211657 81 61 5.0 12.0 0.00 0.00 0.00 73 1013.0
20260507210652 82 82 5.0 11.0 0.00 0.00 0.00 72 1013.0
20260507210135 81 40 5.0 11.0 0.00 0.00 0.00 72 1013.0
20260507205608 82 69 4.0 8.0 0.00 0.00 0.00 72 1013.0
20260507205042 82 100 5.0 13.0 0.00 0.00 0.00 72 1013.1
20260507204515 82 70 5.0 11.0 0.00 0.00 0.00 72 1013.2
20260507204012 82 359 5.0 12.0 0.00 0.00 0.00 72 1013.3
20260507203501 81 354 5.0 12.0 0.00 0.00 0.00 73 1013.5
20260507202958 80 15 4.0 11.0 0.00 0.00 0.00 74 1013.5
20260507202455 80 41 6.0 11.0 0.00 0.00 0.00 74 1013.5
20260507201952 80 62 6.0 13.0 0.00 0.00 0.00 73 1013.5
20260507201426 80 64 6.0 13.0 0.00 0.00 0.00 73 1013.4
20260507200922 80 46 7.0 14.0 0.00 0.00 0.00 74 1013.3
20260507200419 80 343 7.0 14.0 0.00 0.00 0.00 74 1013.4
20260507195918 79 43 6.0 12.0 0.00 0.00 0.00 74 1013.5
20260507195354 79 9 5.0 11.0 0.00 0.00 0.00 74 1013.7
20260507194851 79 14 5.0 12.0 0.00 0.00 0.00 74 1013.8
20260507194328 79 354 5.0 12.0 0.00 0.00 0.00 74 1013.8
20260507193830 79 342 6.0 14.0 0.00 0.00 0.00 75 1013.9
20260507193308 79 58 6.0 14.0 0.00 0.00 0.00 73 1014.1
20260507192748 79 349 6.0 15.0 0.00 0.00 0.00 73 1014.1
20260507192249 79 14 6.0 15.0 0.00 0.00 0.00 73 1014.1
20260507191723 80 23 6.0 14.0 0.00 0.00 0.00 73 1014.1
20260507191226 79 10 5.0 14.0 0.00 0.00 0.00 74 1014.3
20260507190705 79 347 7.0 17.0 0.00 0.00 0.00 75 1014.4
20260507190203 79 318 7.0 17.0 0.00 0.00 0.00 74 1014.5
20260507185639 78 354 6.0 15.0 0.00 0.00 0.00 75 1014.4
20260507185140 78 22 4.0 15.0 0.00 0.00 0.00 76 1014.5
20260507184617 77 354 5.0 12.0 0.00 0.00 0.00 76 1014.5
20260507184049 77 24 7.0 13.0 0.00 0.00 0.00 75 1014.6
20260507183537 77 35 6.0 14.0 0.00 0.00 0.00 75 1014.6
20260507183308 78 54 5.0 14.0 0.00 0.00 0.00 75 1014.5
20260507182542 77 29 6.0 13.0 0.00 0.00 0.00 76 1014.7
20260507182537 78 21 5.0 13.0 0.00 0.00 0.00 76 1014.6
20260507181509 77 44 7.0 14.0 0.00 0.00 0.00 76 1014.7
20260507180947 77 338 7.0 14.0 0.00 0.00 0.00 76 1014.9
20260507180444 77 349 5.0 13.0 0.00 0.00 0.00 77 1014.9
20260507175919 76 335 5.0 13.0 0.00 0.00 0.00 77 1014.9
20260507175417 75 349 5.0 12.0 0.00 0.00 0.00 78 1015.0
20260507174851 75 27 5.0 13.0 0.00 0.00 0.00 78 1015.1
20260507174326 74 8 5.0 13.0 0.00 0.00 0.00 78 1015.1
20260507173759 74 4 5.0 11.0 0.00 0.00 0.00 79 1015.3
20260507173504 74 11 5.0 11.0 0.00 0.00 0.00 79 1015.3
20260507172728 74 354 5.0 13.0 0.00 0.00 0.00 79 1015.4
20260507172205 73 354 5.0 13.0 0.00 0.00 0.00 80 1015.4
20260507171703 73 13 4.0 10.0 0.00 0.00 0.00 80 1015.3
20260507171437 72 359 5.0 11.0 0.00 0.00 0.00 81 1015.5
20260507170910 72 12 3.0 11.0 0.00 0.00 0.00 81 1015.5
20260507170112 72 50 3.0 9.0 0.00 0.00 0.00 81 1015.6
20260507165609 71 354 3.0 9.0 0.00 0.00 0.00 81 1015.6
20260507165046 71 27 3.0 8.0 0.00 0.00 0.00 82 1015.5
20260507165042 71 359 3.0 9.0 0.00 0.00 0.00 81 1015.5
20260507164247 70 30 4.0 10.0 0.00 0.00 0.00 83 1015.4
20260507163446 70 22 4.0 10.0 0.00 0.00 0.00 83 1015.3
20260507162944 69 25 5.0 12.0 0.00 0.00 0.00 83 1015.2
20260507162648 69 23 7.0 14.0 0.00 0.00 0.00 84 1015.1
20260507161914 68 47 7.0 13.0 0.00 0.00 0.00 86 1015.1
20260507161411 67 4 7.0 16.0 0.00 0.00 0.00 87 1015.1
20260507160908 67 11 6.0 12.0 0.00 0.00 0.00 87 1015.2
20260507160341 66 345 6.0 11.0 0.00 0.00 0.00 88 1015.3
20260507160046 66 354 7.0 13.0 0.00 0.00 0.00 88 1015.3
20260507155311 66 23 6.0 13.0 0.00 0.00 0.00 88 1015.5
20260507154744 66 29 5.0 13.0 0.00 0.00 0.00 88 1015.6
20260507154242 66 334 5.0 12.0 0.00 0.00 0.00 88 1015.5
20260507153715 65 29 5.0 14.0 0.00 0.00 0.00 89 1015.5
20260507153441 65 37 6.0 14.0 0.00 0.00 0.00 89 1015.5
20260507152707 65 32 5.0 14.0 0.00 0.00 0.00 89 1015.6
20260507152204 65 15 6.0 12.0 0.00 0.00 0.00 89 1015.7
20260507151702 65 12 7.0 12.0 0.00 0.00 0.00 89 1015.5
20260507151134 65 354 6.0 13.0 0.00 0.00 0.00 89 1015.7
20260507150631 65 12 6.0 13.0 0.00 0.00 0.00 89 1015.7
20260507150104 65 354 7.0 19.0 0.00 0.00 0.00 90 1015.7
20260507145601 65 4 9.0 19.0 0.00 0.00 0.00 89 1015.5
20260507145039 65 27 8.0 19.0 0.00 0.00 0.00 90 1015.2
20260507145034 65 4 8.0 18.0 0.00 0.00 0.00 90 1015.4
20260507144508 65 345 8.0 19.0 0.00 0.00 0.00 90 1015.1
20260507142935 64 30 7.0 14.0 0.00 0.00 0.00 91 1015.0
20260507142430 64 33 8.0 15.0 0.00 0.00 0.00 91 1014.9
20260507141905 64 38 8.0 15.0 0.00 0.00 0.00 91 1014.8
20260507141339 64 50 9.0 14.0 0.00 0.00 0.00 91 1014.9
20260507141108 64 4 9.0 16.0 0.00 0.00 0.00 91 1015.0
20260507140312 64 45 10.0 16.0 0.00 0.00 0.00 91 1014.9
20260507135810 64 10 10.0 16.0 0.00 0.00 0.00 91 1014.9
20260507135245 65 18 8.0 16.0 0.00 0.00 0.00 91 1015.1
20260507134722 65 18 8.0 15.0 0.00 0.00 0.00 90 1015.3
20260507134203 65 19 7.0 15.0 0.00 0.00 0.00 90 1015.2
20260507133934 65 15 7.0 14.0 0.00 0.00 0.00 90 1015.4
20260507133410 65 48 8.0 14.0 0.00 0.00 0.00 90 1015.3
20260507132640 65 359 8.0 17.0 0.00 0.00 0.00 90 1015.4
20260507132130 65 354 8.0 17.0 0.00 0.00 0.00 91 1015.5
20260507131629 65 339 8.0 16.0 0.00 0.00 0.00 91 1015.4
20260507131132 65 354 7.0 16.0 0.00 0.00 0.00 91 1015.3
20260507130610 65 8 7.0 16.0 0.00 0.00 0.00 91 1015.3
20260507130048 65 16 7.0 16.0 0.00 0.00 0.00 91 1015.4
20260507125528 65 25 6.0 15.0 0.00 0.00 0.00 91 1015.3
20260507125029 66 4 6.0 15.0 0.00 0.00 0.00 91 1015.0
20260507124524 66 4 7.0 16.0 0.00 0.00 0.00 91 1014.8
20260507124024 66 359 7.0 16.0 0.00 0.00 0.00 91 1014.8
20260507123526 66 343 6.0 15.0 0.00 0.00 0.00 91 1014.8
20260507123234 66 4 7.0 15.0 0.00 0.00 0.00 91 1014.5